Saint Bonnet de Bellac- Haute Vienne - France
Donnes mto: mercredi, 23/05/2012
Date Horaire Temp. E. Hum. E. P.atmo. Pluie Vent Direction Direction Ensoleilleme Solaire P. de rose Temp au vent Rafales
23/05/2012 00:00 15,9 C 79 % 1019,4 hPa 0,0 mm 0,0 km/h (0 Bft) O-SO 247 0 min 0 W/m 12,3 C 15,9 C 2,9 km/h (1 Bft)
23/05/2012 00:10 15,8 C 79 % 1019,6 hPa 0,0 mm 2,2 km/h (1 Bft) O 270 0 min 0 W/m 12,2 C 15,8 C 8,6 km/h (2 Bft)
23/05/2012 00:20 15,8 C 79 % 1019,7 hPa 0,0 mm 0,7 km/h (0 Bft) NO 315 0 min 0 W/m 12,2 C 15,8 C 3,2 km/h (1 Bft)
23/05/2012 00:30 15,8 C 79 % 1019,6 hPa 0,0 mm 0,0 km/h (0 Bft) O-NO 292 0 min 0 W/m 12,2 C 15,8 C 0,0 km/h (0 Bft)
23/05/2012 00:40 15,6 C 79 % 1019,7 hPa 0,0 mm 4,0 km/h (1 Bft) O-SO 247 0 min 0 W/m 12,0 C 15,6 C 4,0 km/h (1 Bft)
23/05/2012 00:50 15,6 C 79 % 1019,7 hPa 0,0 mm 1,4 km/h (1 Bft) O 270 0 min 0 W/m 12,0 C 15,6 C 3,6 km/h (1 Bft)
23/05/2012 01:00 15,5 C 79 % 1019,8 hPa 0,0 mm 0,0 km/h (0 Bft) NO 315 0 min 0 W/m 11,9 C 15,5 C 0,0 km/h (0 Bft)
23/05/2012 01:10 15,4 C 80 % 1019,8 hPa 0,0 mm 1,1 km/h (1 Bft) NO 315 0 min 0 W/m 12,0 C 15,4 C 4,0 km/h (1 Bft)
23/05/2012 01:20 15,4 C 80 % 1019,9 hPa 0,0 mm 0,4 km/h (0 Bft) NO 315 0 min 0 W/m 12,0 C 15,4 C 4,3 km/h (1 Bft)
23/05/2012 01:30 15,3 C 80 % 1019,9 hPa 0,0 mm 0,4 km/h (0 Bft) NO 315 0 min 0 W/m 11,9 C 15,3 C 3,6 km/h (1 Bft)
23/05/2012 01:40 15,2 C 80 % 1019,8 hPa 0,0 mm 0,4 km/h (0 Bft) O-NO 292 0 min 0 W/m 11,8 C 15,2 C 0,4 km/h (0 Bft)
23/05/2012 01:50 15,1 C 81 % 1019,8 hPa 0,0 mm 4,3 km/h (1 Bft) N-NO 337 0 min 0 W/m 11,9 C 15,1 C 4,3 km/h (1 Bft)
23/05/2012 02:00 14,9 C 81 % 1019,9 hPa 0,0 mm 1,1 km/h (1 Bft) O-NO 292 0 min 0 W/m 11,7 C 14,9 C 3,2 km/h (1 Bft)
23/05/2012 02:10 14,8 C 81 % 1019,8 hPa 0,0 mm 4,7 km/h (1 Bft) NO 315 0 min 0 W/m 11,6 C 14,8 C 4,7 km/h (1 Bft)
23/05/2012 02:20 14,8 C 81 % 1019,9 hPa 0,0 mm 0,7 km/h (0 Bft) NO 315 0 min 0 W/m 11,6 C 14,8 C 0,7 km/h (0 Bft)
23/05/2012 02:30 14,6 C 81 % 1019,9 hPa 0,0 mm 5,4 km/h (2 Bft) NO 315 0 min 0 W/m 11,4 C 14,6 C 7,9 km/h (2 Bft)
23/05/2012 02:40 14,5 C 81 % 1019,9 hPa 0,0 mm 0,7 km/h (0 Bft) NO 315 0 min 0 W/m 11,3 C 14,5 C 3,6 km/h (1 Bft)
23/05/2012 02:50 14,3 C 81 % 1020,1 hPa 0,0 mm 0,7 km/h (0 Bft) NO 315 0 min 0 W/m 11,1 C 14,3 C 4,3 km/h (1 Bft)
23/05/2012 03:02 14,3 C 81 % 1020,1 hPa 0,0 mm 2,9 km/h (1 Bft) N-NO 337 0 min 0 W/m 11,1 C 14,3 C 9,4 km/h (2 Bft)
23/05/2012 03:10 14,1 C 81 % 1020,2 hPa 0,0 mm 0,4 km/h (0 Bft) N-NO 337 0 min 0 W/m 10,9 C 14,1 C 0,4 km/h (0 Bft)
23/05/2012 03:20 14,1 C 81 % 1020,1 hPa 0,0 mm 4,0 km/h (1 Bft) O-NO 292 0 min 0 W/m 10,9 C 14,1 C 4,0 km/h (1 Bft)
23/05/2012 03:30 13,9 C 82 % 1020,2 hPa 0,0 mm 0,7 km/h (0 Bft) NO 315 0 min 0 W/m 10,9 C 13,9 C 0,7 km/h (0 Bft)
23/05/2012 03:40 13,8 C 82 % 1020,1 hPa 0,0 mm 0,0 km/h (0 Bft) NO 315 0 min 0 W/m 10,8 C 13,8 C 3,2 km/h (1 Bft)
23/05/2012 03:50 13,8 C 82 % 1020,1 hPa 0,0 mm 0,0 km/h (0 Bft) NO 315 0 min 0 W/m 10,8 C 13,8 C 0,0 km/h (0 Bft)
23/05/2012 04:00 13,6 C 82 % 1020,2 hPa 0,0 mm 0,0 km/h (0 Bft) NO 315 0 min 0 W/m 10,6 C 13,6 C 0,0 km/h (0 Bft)
23/05/2012 04:10 13,6 C 83 % 1020,3 hPa 0,0 mm 0,0 km/h (0 Bft) O 270 0 min 0 W/m 10,8 C 13,6 C 0,0 km/h (0 Bft)
23/05/2012 04:20 13,5 C 83 % 1020,3 hPa 0,0 mm 0,0 km/h (0 Bft) NO 315 0 min 0 W/m 10,7 C 13,5 C 3,2 km/h (1 Bft)
23/05/2012 04:30 13,4 C 83 % 1020,2 hPa 0,0 mm 0,0 km/h (0 Bft) NO 315 0 min 0 W/m 10,6 C 13,4 C 0,0 km/h (0 Bft)
23/05/2012 04:40 13,4 C 83 % 1020,4 hPa 0,0 mm 3,2 km/h (1 Bft) NO 315 0 min 0 W/m 10,6 C 13,4 C 3,6 km/h (1 Bft)
23/05/2012 04:50 13,3 C 84 % 1020,3 hPa 0,0 mm 0,0 km/h (0 Bft) NO 315 0 min 0 W/m 10,7 C 13,3 C 0,0 km/h (0 Bft)
23/05/2012 05:00 13,2 C 84 % 1020,3 hPa 0,0 mm 1,8 km/h (1 Bft) NO 315 0 min 0 W/m 10,6 C 13,2 C 3,2 km/h (1 Bft)
23/05/2012 05:10 13,1 C 85 % 1020,4 hPa 0,0 mm 4,3 km/h (1 Bft) N-NO 337 0 min 0 W/m 10,6 C 13,1 C 7,2 km/h (2 Bft)
23/05/2012 05:20 13,1 C 85 % 1020,5 hPa 0,0 mm 0,0 km/h (0 Bft) N-NO 337 0 min 0 W/m 10,6 C 13,1 C 0,0 km/h (0 Bft)
23/05/2012 05:30 12,9 C 85 % 1020,7 hPa 0,0 mm 1,1 km/h (1 Bft) NO 315 0 min 0 W/m 10,4 C 12,9 C 1,1 km/h (1 Bft)
23/05/2012 05:40 12,9 C 85 % 1020,7 hPa 0,0 mm 1,1 km/h (1 Bft) N-NO 337 0 min 0 W/m 10,4 C 12,9 C 2,9 km/h (1 Bft)
23/05/2012 05:50 12,9 C 85 % 1020,7 hPa 0,0 mm 1,4 km/h (1 Bft) N-NO 337 0 min 0 W/m 10,4 C 12,9 C 4,0 km/h (1 Bft)
23/05/2012 06:00 12,8 C 86 % 1020,8 hPa 0,0 mm 1,8 km/h (1 Bft) NO 315 0 min 0 W/m 10,5 C 12,8 C 4,3 km/h (1 Bft)
23/05/2012 06:10 12,8 C 86 % 1020,7 hPa 0,0 mm 0,7 km/h (0 Bft) NO 315 0 min 0 W/m 10,5 C 12,8 C 3,2 km/h (1 Bft)
23/05/2012 06:20 12,8 C 86 % 1020,9 hPa 0,0 mm 0,0 km/h (0 Bft) NO 315 0 min 0 W/m 10,5 C 12,8 C 0,0 km/h (0 Bft)
23/05/2012 06:30 12,8 C 86 % 1020,8 hPa 0,0 mm 0,0 km/h (0 Bft) NO 315 0 min 0 W/m 10,5 C 12,8 C 2,9 km/h (1 Bft)
23/05/2012 06:40 12,8 C 86 % 1020,9 hPa 0,0 mm 0,7 km/h (0 Bft) NO 315 0 min 0 W/m 10,5 C 12,8 C 4,3 km/h (1 Bft)
23/05/2012 06:50 12,7 C 86 % 1021,0 hPa 0,0 mm 0,0 km/h (0 Bft) NO 315 0 min 0 W/m 10,4 C 12,7 C 0,0 km/h (0 Bft)
23/05/2012 07:00 12,7 C 86 % 1021,1 hPa 0,0 mm 0,0 km/h (0 Bft) NO 315 0 min 0 W/m 10,4 C 12,7 C 0,0 km/h (0 Bft)
23/05/2012 07:10 12,7 C 87 % 1021,2 hPa 0,0 mm 0,0 km/h (0 Bft) NO 315 0 min 0 W/m 10,6 C 12,7 C 0,0 km/h (0 Bft)
23/05/2012 07:20 12,8 C 87 % 1021,1 hPa 0,0 mm 0,0 km/h (0 Bft) NO 315 0 min 0 W/m 10,7 C 12,8 C 0,0 km/h (0 Bft)
23/05/2012 07:30 12,8 C 87 % 1021,3 hPa 0,0 mm 0,0 km/h (0 Bft) NO 315 0 min 0 W/m 10,7 C 12,8 C 0,0 km/h (0 Bft)
23/05/2012 07:40 12,8 C 87 % 1021,4 hPa 0,0 mm 0,0 km/h (0 Bft) NO 315 0 min 0 W/m 10,7 C 12,8 C 0,0 km/h (0 Bft)
23/05/2012 07:50 12,8 C 87 % 1021,4 hPa 0,0 mm 0,0 km/h (0 Bft) NO 315 0 min 0 W/m 10,7 C 12,8 C 0,0 km/h (0 Bft)
23/05/2012 08:00 12,9 C 87 % 1021,4 hPa 0,0 mm 0,0 km/h (0 Bft) NO 315 0 min 0 W/m 10,8 C 12,9 C 0,0 km/h (0 Bft)
23/05/2012 08:10 13,1 C 87 % 1021,6 hPa 0,0 mm 0,7 km/h (0 Bft) O-NO 292 0 min 0 W/m 11,0 C 13,1 C 3,2 km/h (1 Bft)
23/05/2012 08:20 13,2 C 87 % 1021,7 hPa 0,0 mm 0,0 km/h (0 Bft) NO 315 0 min 0 W/m 11,1 C 13,2 C 0,0 km/h (0 Bft)
23/05/2012 08:30 13,3 C 87 % 1021,8 hPa 0,0 mm 0,4 km/h (0 Bft) NO 315 0 min 0 W/m 11,2 C 13,3 C 0,4 km/h (0 Bft)
23/05/2012 08:40 13,4 C 87 % 1021,9 hPa 0,0 mm 0,0 km/h (0 Bft) NO 315 0 min 0 W/m 11,3 C 13,4 C 0,0 km/h (0 Bft)
23/05/2012 08:50 13,5 C 86 % 1021,9 hPa 0,0 mm 0,0 km/h (0 Bft) O 270 0 min 0 W/m 11,2 C 13,5 C 0,0 km/h (0 Bft)
23/05/2012 09:00 13,6 C 86 % 1022,0 hPa 0,0 mm 0,0 km/h (0 Bft) NO 315 0 min 0 W/m 11,3 C 13,6 C 0,0 km/h (0 Bft)
23/05/2012 09:10 13,6 C 86 % 1022,1 hPa 0,0 mm 0,0 km/h (0 Bft) NO 315 0 min 0 W/m 11,3 C 13,6 C 0,0 km/h (0 Bft)
23/05/2012 09:20 13,7 C 86 % 1022,3 hPa 0,0 mm 0,0 km/h (0 Bft) O 270 0 min 0 W/m 11,4 C 13,7 C 0,0 km/h (0 Bft)
23/05/2012 09:30 13,9 C 86 % 1022,4 hPa 0,0 mm 0,0 km/h (0 Bft) N 360 0 min 0 W/m 11,6 C 13,9 C 0,0 km/h (0 Bft)
23/05/2012 09:40 14,2 C 86 % 1022,5 hPa 0,0 mm 4,3 km/h (1 Bft) NO 315 0 min 0 W/m 11,9 C 14,2 C 9,4 km/h (2 Bft)
23/05/2012 09:50 14,4 C 85 % 1022,5 hPa 0,0 mm 0,0 km/h (0 Bft) O-NO 292 0 min 0 W/m 11,9 C 14,4 C 0,0 km/h (0 Bft)
23/05/2012 10:00 14,6 C 84 % 1022,6 hPa 0,0 mm 0,0 km/h (0 Bft) NO 315 0 min 0 W/m 11,9 C 14,6 C 1,4 km/h (1 Bft)
23/05/2012 10:10 14,8 C 84 % 1022,7 hPa 0,0 mm 1,1 km/h (1 Bft) NO 315 0 min 0 W/m 12,1 C 14,8 C 3,2 km/h (1 Bft)
23/05/2012 10:20 15,1 C 84 % 1022,7 hPa 0,0 mm 0,0 km/h (0 Bft) NO 315 0 min 0 W/m 12,4 C 15,1 C 3,6 km/h (1 Bft)
23/05/2012 10:30 15,3 C 83 % 1022,7 hPa 0,0 mm 1,1 km/h (1 Bft) NO 315 0 min 0 W/m 12,4 C 15,3 C 4,3 km/h (1 Bft)
23/05/2012 10:40 15,6 C 83 % 1022,6 hPa 0,0 mm 0,7 km/h (0 Bft) NO 315 0 min 0 W/m 12,7 C 15,6 C 4,0 km/h (1 Bft)
23/05/2012 10:50 16,0 C 81 % 1022,5 hPa 0,0 mm 2,2 km/h (1 Bft) NO 315 0 min 0 W/m 12,7 C 16,0 C 7,2 km/h (2 Bft)
23/05/2012 11:00 16,4 C 81 % 1022,6 hPa 0,0 mm 0,4 km/h (0 Bft) N-NE 22 0 min 0 W/m 13,1 C 16,4 C 3,2 km/h (1 Bft)
23/05/2012 11:10 16,9 C 81 % 1022,7 hPa 0,0 mm 0,7 km/h (0 Bft) SO 225 0 min 0 W/m 13,6 C 16,9 C 3,6 km/h (1 Bft)
23/05/2012 11:20 17,6 C 77 % 1022,6 hPa 0,0 mm 1,8 km/h (1 Bft) O 270 0 min 0 W/m 13,5 C 17,6 C 7,2 km/h (2 Bft)
23/05/2012 11:30 18,2 C 77 % 1022,7 hPa 0,0 mm 0,4 km/h (0 Bft) S-SO 202 0 min 0 W/m 14,1 C 18,2 C 0,4 km/h (0 Bft)
23/05/2012 11:40 18,4 C 76 % 1022,7 hPa 0,0 mm 1,1 km/h (1 Bft) O-NO 292 0 min 0 W/m 14,1 C 18,4 C 1,1 km/h (1 Bft)
23/05/2012 11:50 18,8 C 75 % 1022,6 hPa 0,0 mm 2,2 km/h (1 Bft) NO 315 0 min 0 W/m 14,3 C 18,8 C 7,9 km/h (2 Bft)
23/05/2012 12:00 19,4 C 74 % 1022,5 hPa 0,0 mm 0,7 km/h (0 Bft) N-NE 22 0 min 0 W/m 14,6 C 19,4 C 3,6 km/h (1 Bft)
23/05/2012 12:10 19,9 C 74 % 1022,6 hPa 0,0 mm 0,0 km/h (0 Bft) O-NO 292 0 min 0 W/m 15,1 C 19,9 C 0,0 km/h (0 Bft)
23/05/2012 12:20 20,4 C 72 % 1022,6 hPa 0,0 mm 1,8 km/h (1 Bft) NE 45 0 min 0 W/m 15,2 C 20,4 C 4,0 km/h (1 Bft)
23/05/2012 12:30 20,9 C 71 % 1022,6 hPa 0,0 mm 2,9 km/h (1 Bft) O-NO 292 0 min 0 W/m 15,4 C 20,9 C 4,0 km/h (1 Bft)
23/05/2012 12:40 21,3 C 69 % 1022,7 hPa 0,0 mm 0,4 km/h (0 Bft) O-NO 292 0 min 0 W/m 15,4 C 21,3 C 0,4 km/h (0 Bft)
23/05/2012 12:50 21,5 C 69 % 1022,7 hPa 0,0 mm 0,4 km/h (0 Bft) N-NO 337 0 min 0 W/m 15,6 C 21,5 C 3,2 km/h (1 Bft)
23/05/2012 13:00 21,8 C 68 % 1022,6 hPa 0,0 mm 1,1 km/h (1 Bft) O-NO 292 0 min 0 W/m 15,6 C 21,8 C 1,1 km/h (1 Bft)
23/05/2012 13:10 22,3 C 69 % 1022,5 hPa 0,0 mm 1,1 km/h (1 Bft) O-SO 247 0 min 0 W/m 16,3 C 22,3 C 2,9 km/h (1 Bft)
23/05/2012 13:20 22,6 C 69 % 1022,5 hPa 0,0 mm 2,5 km/h (1 Bft) O-SO 247 0 min 0 W/m 16,6 C 22,6 C 7,2 km/h (2 Bft)
23/05/2012 13:30 22,8 C 68 % 1022,5 hPa 0,0 mm 2,2 km/h (1 Bft) SO 225 0 min 0 W/m 16,6 C 22,8 C 2,2 km/h (1 Bft)
23/05/2012 13:40 22,9 C 68 % 1022,6 hPa 0,0 mm 3,6 km/h (1 Bft) N-NO 337 0 min 0 W/m 16,7 C 22,9 C 3,6 km/h (1 Bft)
23/05/2012 13:50 22,9 C 68 % 1022,5 hPa 0,0 mm 0,7 km/h (0 Bft) NO 315 0 min 0 W/m 16,7 C 22,9 C 4,0 km/h (1 Bft)
23/05/2012 14:00 23,2 C 66 % 1022,5 hPa 0,0 mm 0,7 km/h (0 Bft) O-SO 247 0 min 0 W/m 16,5 C 23,2 C 0,7 km/h (0 Bft)
23/05/2012 14:10 23,4 C 68 % 1022,5 hPa 0,0 mm 0,4 km/h (0 Bft) NO 315 0 min 0 W/m 17,1 C 23,4 C 4,3 km/h (1 Bft)
23/05/2012 14:20 23,8 C 66 % 1022,5 hPa 0,0 mm 1,1 km/h (1 Bft) NO 315 0 min 0 W/m 17,1 C 23,8 C 4,3 km/h (1 Bft)
23/05/2012 14:30 23,9 C 66 % 1022,4 hPa 0,0 mm 0,7 km/h (0 Bft) N-NE 22 0 min 0 W/m 17,1 C 23,9 C 4,0 km/h (1 Bft)
23/05/2012 14:40 24,1 C 66 % 1022,4 hPa 0,0 mm 8,6 km/h (2 Bft) N-NO 337 0 min 0 W/m 17,3 C 24,1 C 10,8 km/h (2 Bft)
23/05/2012 14:50 24,1 C 66 % 1022,4 hPa 0,0 mm 2,9 km/h (1 Bft) N-NO 337 0 min 0 W/m 17,3 C 24,1 C 4,7 km/h (1 Bft)
23/05/2012 15:00 24,2 C 66 % 1022,4 hPa 0,0 mm 2,9 km/h (1 Bft) N-NE 22 0 min 0 W/m 17,4 C 24,2 C 4,0 km/h (1 Bft)
23/05/2012 15:10 24,3 C 66 % 1022,5 hPa 0,0 mm 0,4 km/h (0 Bft) NO 315 0 min 0 W/m 17,5 C 24,3 C 0,4 km/h (0 Bft)
23/05/2012 15:20 24,3 C 67 % 1022,4 hPa 0,0 mm 1,8 km/h (1 Bft) NO 315 0 min 0 W/m 17,8 C 24,3 C 6,5 km/h (2 Bft)
23/05/2012 15:30 24,3 C 66 % 1022,5 hPa 0,0 mm 0,0 km/h (0 Bft) NO 315 0 min 0 W/m 17,5 C 24,3 C 0,0 km/h (0 Bft)
23/05/2012 15:40 24,3 C 66 % 1022,5 hPa 0,0 mm 4,7 km/h (1 Bft) O 270 0 min 0 W/m 17,5 C 24,3 C 11,2 km/h (2 Bft)
_ Min-Heure 07:10 15:40 00:00 - 15:30 - - - - 07:00 07:10 15:30
Minimum _ 12,7 C 66 % 1019,4 hPa - 0,0 km/h (0 Bft) - - - - 10,4 C 12,7 C 0,0 km/h (0 Bft)
_ Max-Heure 15:40 08:40 12:50 15:40 14:40 - - 15:40 15:40 15:20 15:40 15:40
Maximum _ 24,3 C 87 % 1022,7 hPa 0,0 mm 8,6 km/h
N-NO (2 Bft)
- - 0 min 0 W/m 17,8 C 24,3 C 11,2 km/h
O (2 Bft)
Moyenne _ 16,4 C 79 % 1021,4 hPa #0,0 mm 1,2 km/h (1 Bft) NO - #0 min. 0 W/m 12,7 C 16,4 C 2,8 km/h (1 Bft)
Saint Bonnet de Bellac- Haute Vienne - France